Wetterdaten: Mittwoch, 16.06.2010
Datum Zeit Temp. A. Feuchte A. Luftdruck Regen Wind Richtung Richtung Sonnenschein UV Solar Windben
16.06.2010 00:00 12,0 C 74 % 1023,2 hPa 0,0 mm 1,6 km/h (1 Bft) N-NO 22 0 min 0 UV-I 0 W/m 8,0 km/h (2 Bft)
16.06.2010 00:10 11,9 C 74 % 1023,3 hPa 0,0 mm 1,6 km/h (1 Bft) N-NO 22 0 min 0 UV-I 0 W/m 8,0 km/h (2 Bft)
16.06.2010 00:20 11,7 C 75 % 1023,3 hPa 0,0 mm 1,6 km/h (1 Bft) N-NO 22 0 min 0 UV-I 0 W/m 9,7 km/h (2 Bft)
16.06.2010 00:30 11,6 C 76 % 1023,4 hPa 0,0 mm 1,6 km/h (1 Bft) O-NO 67 0 min 0 UV-I 0 W/m 6,4 km/h (2 Bft)
16.06.2010 00:40 11,5 C 77 % 1023,6 hPa 0,0 mm 1,6 km/h (1 Bft) N-NO 22 0 min 0 UV-I 0 W/m 9,7 km/h (2 Bft)
16.06.2010 00:50 11,3 C 78 % 1023,5 hPa 0,0 mm 0,0 km/h (0 Bft) O-NO 67 0 min 0 UV-I 0 W/m 4,8 km/h (1 Bft)
16.06.2010 01:00 11,1 C 79 % 1023,5 hPa 0,0 mm 0,0 km/h (0 Bft) O-NO 67 0 min 0 UV-I 0 W/m 3,2 km/h (1 Bft)
16.06.2010 01:10 10,9 C 80 % 1023,6 hPa 0,0 mm 0,0 km/h (0 Bft) N-NO 22 0 min 0 UV-I 0 W/m 6,4 km/h (2 Bft)
16.06.2010 01:20 10,7 C 81 % 1023,6 hPa 0,0 mm 1,6 km/h (1 Bft) N-NO 22 0 min 0 UV-I 0 W/m 9,7 km/h (2 Bft)
16.06.2010 01:30 10,7 C 81 % 1023,6 hPa 0,0 mm 1,6 km/h (1 Bft) N-NO 22 0 min 0 UV-I 0 W/m 8,0 km/h (2 Bft)
16.06.2010 01:40 10,8 C 81 % 1023,7 hPa 0,0 mm 1,6 km/h (1 Bft) N-NO 22 0 min 0 UV-I 0 W/m 6,4 km/h (2 Bft)
16.06.2010 01:50 10,8 C 81 % 1023,7 hPa 0,0 mm 1,6 km/h (1 Bft) N 360 0 min 0 UV-I 0 W/m 9,7 km/h (2 Bft)
16.06.2010 02:00 10,7 C 82 % 1023,5 hPa 0,0 mm 1,6 km/h (1 Bft) N-NO 22 0 min 0 UV-I 0 W/m 8,0 km/h (2 Bft)
16.06.2010 02:10 10,6 C 82 % 1023,5 hPa 0,0 mm 1,6 km/h (1 Bft) N-NO 22 0 min 0 UV-I 0 W/m 6,4 km/h (2 Bft)
16.06.2010 02:20 10,4 C 83 % 1023,5 hPa 0,0 mm 0,0 km/h (0 Bft) N-NO 22 0 min 0 UV-I 0 W/m 8,0 km/h (2 Bft)
16.06.2010 02:30 10,3 C 83 % 1023,3 hPa 0,0 mm 1,6 km/h (1 Bft) N-NO 22 0 min 0 UV-I 0 W/m 6,4 km/h (2 Bft)
16.06.2010 02:40 10,2 C 84 % 1023,3 hPa 0,0 mm 0,0 km/h (0 Bft) N-NO 22 0 min 0 UV-I 0 W/m 3,2 km/h (1 Bft)
16.06.2010 02:50 10,1 C 84 % 1023,3 hPa 0,0 mm 0,0 km/h (0 Bft) N-NO 22 0 min 0 UV-I 0 W/m 4,8 km/h (1 Bft)
16.06.2010 03:00 9,9 C 85 % 1023,1 hPa 0,0 mm 0,0 km/h (0 Bft) N-NO 22 0 min 0 UV-I 0 W/m 4,8 km/h (1 Bft)
16.06.2010 03:10 9,8 C 85 % 1023,1 hPa 0,0 mm 0,0 km/h (0 Bft) NO 45 0 min 0 UV-I 0 W/m 6,4 km/h (2 Bft)
16.06.2010 03:20 9,7 C 86 % 1023,1 hPa 0,0 mm 0,0 km/h (0 Bft) NO 45 0 min 0 UV-I 0 W/m 4,8 km/h (1 Bft)
16.06.2010 03:30 9,6 C 86 % 1023,2 hPa 0,0 mm 1,6 km/h (1 Bft) NO 45 0 min 0 UV-I 0 W/m 6,4 km/h (2 Bft)
16.06.2010 03:40 9,5 C 86 % 1023,1 hPa 0,0 mm 1,6 km/h (1 Bft) N-NO 22 0 min 0 UV-I 0 W/m 8,0 km/h (2 Bft)
16.06.2010 03:50 9,4 C 86 % 1023,1 hPa 0,0 mm 0,0 km/h (0 Bft) NO 45 0 min 0 UV-I 0 W/m 4,8 km/h (1 Bft)
16.06.2010 04:00 9,3 C 87 % 1023,1 hPa 0,0 mm 0,0 km/h (0 Bft) NO 45 0 min 0 UV-I 0 W/m 3,2 km/h (1 Bft)
16.06.2010 04:10 9,3 C 87 % 1023,2 hPa 0,0 mm 0,0 km/h (0 Bft) NO 45 0 min 0 UV-I 0 W/m 3,2 km/h (1 Bft)
16.06.2010 04:20 9,1 C 87 % 1023,2 hPa 0,0 mm 0,0 km/h (0 Bft) N 0 0 min 0 UV-I 0 W/m 0,0 km/h (0 Bft)
16.06.2010 04:30 9,0 C 88 % 1023,0 hPa 0,0 mm 0,0 km/h (0 Bft) NO 45 0 min 0 UV-I 0 W/m 4,8 km/h (1 Bft)
16.06.2010 04:40 9,0 C 88 % 1023,0 hPa 0,0 mm 0,0 km/h (0 Bft) NO 45 0 min 0 UV-I 0 W/m 3,2 km/h (1 Bft)
16.06.2010 04:50 8,9 C 88 % 1023,1 hPa 0,0 mm 0,0 km/h (0 Bft) NO 45 0 min 0 UV-I 0 W/m 4,8 km/h (1 Bft)
16.06.2010 05:00 8,9 C 88 % 1023,0 hPa 0,0 mm 0,0 km/h (0 Bft) NO 45 0 min 0 UV-I 0 W/m 3,2 km/h (1 Bft)
16.06.2010 05:10 8,8 C 88 % 1023,0 hPa 0,0 mm 0,0 km/h (0 Bft) N 0 0 min 0 UV-I 0 W/m 0,0 km/h (0 Bft)
16.06.2010 05:20 8,7 C 92 % 1023,0 hPa 0,0 mm 0,0 km/h (0 Bft) NO 45 0 min 0 UV-I 9 W/m 1,6 km/h (1 Bft)
16.06.2010 05:30 8,6 C 89 % 1023,0 hPa 0,0 mm 0,0 km/h (0 Bft) NO 45 0 min 0 UV-I 14 W/m 4,8 km/h (1 Bft)
16.06.2010 05:40 8,6 C 89 % 1022,9 hPa 0,0 mm 0,0 km/h (0 Bft) NO 45 0 min 0 UV-I 19 W/m 1,6 km/h (1 Bft)
16.06.2010 05:50 8,8 C 89 % 1022,9 hPa 0,0 mm 0,0 km/h (0 Bft) NO 45 0 min 0 UV-I 25 W/m 3,2 km/h (1 Bft)
16.06.2010 06:00 8,9 C 89 % 1022,9 hPa 0,0 mm 0,0 km/h (0 Bft) NO 45 0 min 0 UV-I 26 W/m 1,6 km/h (1 Bft)
16.06.2010 06:10 8,9 C 89 % 1022,9 hPa 0,0 mm 0,0 km/h (0 Bft) NO 45 0 min 0 UV-I 32 W/m 1,6 km/h (1 Bft)
16.06.2010 06:20 9,0 C 90 % 1022,9 hPa 0,0 mm 0,0 km/h (0 Bft) NO 45 10 min 0 UV-I 97 W/m 3,2 km/h (1 Bft)
16.06.2010 06:30 9,3 C 89 % 1022,9 hPa 0,0 mm 0,0 km/h (0 Bft) NO 45 10 min 0 UV-I 120 W/m 1,6 km/h (1 Bft)
16.06.2010 06:40 9,7 C 89 % 1022,9 hPa 0,0 mm 0,0 km/h (0 Bft) NO 45 10 min 0 UV-I 137 W/m 3,2 km/h (1 Bft)
16.06.2010 06:50 9,9 C 88 % 1022,9 hPa 0,0 mm 0,0 km/h (0 Bft) NO 45 10 min 1 UV-I 135 W/m 4,8 km/h (1 Bft)
16.06.2010 07:00 10,3 C 87 % 1022,9 hPa 0,0 mm 1,6 km/h (1 Bft) N-NO 22 10 min 1 UV-I 162 W/m 6,4 km/h (2 Bft)
16.06.2010 07:10 10,7 C 85 % 1022,8 hPa 0,0 mm 3,2 km/h (1 Bft) NO 45 10 min 1 UV-I 183 W/m 11,3 km/h (2 Bft)
16.06.2010 07:20 11,0 C 84 % 1022,9 hPa 0,0 mm 1,6 km/h (1 Bft) N-NO 22 10 min 1 UV-I 221 W/m 8,0 km/h (2 Bft)
16.06.2010 07:30 11,4 C 83 % 1022,8 hPa 0,0 mm 1,6 km/h (1 Bft) N 360 10 min 1 UV-I 257 W/m 6,4 km/h (2 Bft)
16.06.2010 07:40 11,9 C 82 % 1022,7 hPa 0,0 mm 1,6 km/h (1 Bft) O-NO 67 10 min 1 UV-I 287 W/m 8,0 km/h (2 Bft)
16.06.2010 07:50 12,5 C 80 % 1022,7 hPa 0,0 mm 1,6 km/h (1 Bft) O 90 10 min 1 UV-I 318 W/m 6,4 km/h (2 Bft)
16.06.2010 08:00 13,1 C 78 % 1022,7 hPa 0,0 mm 0,2 km/h (0 Bft) N-NO 30 10 min 1 UV-I 345 W/m 1,6 km/h (1 Bft)
16.06.2010 08:10 13,6 C 73 % 1022,7 hPa 0,0 mm 1,6 km/h (1 Bft) O 90 10 min 2 UV-I 374 W/m 11,3 km/h (2 Bft)
16.06.2010 08:20 14,1 C 72 % 1022,7 hPa 0,0 mm 4,8 km/h (1 Bft) O-NO 67 10 min 2 UV-I 406 W/m 14,5 km/h (3 Bft)
16.06.2010 08:30 14,4 C 71 % 1022,7 hPa 0,0 mm 6,4 km/h (2 Bft) O-NO 67 10 min 2 UV-I 431 W/m 14,5 km/h (3 Bft)
16.06.2010 08:40 14,6 C 70 % 1022,7 hPa 0,0 mm 6,4 km/h (2 Bft) O-NO 67 10 min 2 UV-I 459 W/m 17,7 km/h (3 Bft)
16.06.2010 08:50 15,0 C 68 % 1022,7 hPa 0,0 mm 6,4 km/h (2 Bft) O-NO 67 10 min 2 UV-I 487 W/m 19,3 km/h (3 Bft)
16.06.2010 09:00 15,2 C 67 % 1022,7 hPa 0,0 mm 8,0 km/h (2 Bft) O 90 10 min 2 UV-I 504 W/m 16,1 km/h (3 Bft)
16.06.2010 09:10 15,5 C 68 % 1022,7 hPa 0,0 mm 4,8 km/h (1 Bft) O-NO 67 10 min 3 UV-I 540 W/m 17,7 km/h (3 Bft)
16.06.2010 09:20 15,9 C 64 % 1022,7 hPa 0,0 mm 6,4 km/h (2 Bft) O 90 10 min 3 UV-I 570 W/m 16,1 km/h (3 Bft)
16.06.2010 09:30 16,0 C 64 % 1022,6 hPa 0,0 mm 8,0 km/h (2 Bft) O 90 10 min 3 UV-I 599 W/m 20,9 km/h (4 Bft)
16.06.2010 09:40 16,3 C 62 % 1022,6 hPa 0,0 mm 8,0 km/h (2 Bft) O 90 10 min 4 UV-I 645 W/m 20,9 km/h (4 Bft)
16.06.2010 09:50 16,6 C 61 % 1022,5 hPa 0,0 mm 8,0 km/h (2 Bft) O 90 10 min 4 UV-I 657 W/m 17,7 km/h (3 Bft)
16.06.2010 10:00 16,8 C 60 % 1022,3 hPa 0,0 mm 6,4 km/h (2 Bft) O-NO 67 10 min 4 UV-I 666 W/m 17,7 km/h (3 Bft)
16.06.2010 10:10 17,2 C 59 % 1022,4 hPa 0,0 mm 8,0 km/h (2 Bft) O 90 10 min 4 UV-I 700 W/m 17,7 km/h (3 Bft)
16.06.2010 10:20 17,4 C 57 % 1022,2 hPa 0,0 mm 6,4 km/h (2 Bft) O-NO 67 10 min 5 UV-I 712 W/m 17,7 km/h (3 Bft)
16.06.2010 10:30 17,6 C 54 % 1022,2 hPa 0,0 mm 8,0 km/h (2 Bft) O 90 10 min 5 UV-I 751 W/m 17,7 km/h (3 Bft)
16.06.2010 10:40 17,8 C 56 % 1022,1 hPa 0,0 mm 6,4 km/h (2 Bft) O-NO 67 10 min 5 UV-I 754 W/m 16,1 km/h (3 Bft)
16.06.2010 10:50 18,0 C 54 % 1022,1 hPa 0,0 mm 8,0 km/h (2 Bft) O-NO 67 10 min 5 UV-I 775 W/m 24,1 km/h (4 Bft)
16.06.2010 11:00 18,3 C 55 % 1022,1 hPa 0,0 mm 8,0 km/h (2 Bft) O-NO 67 10 min 6 UV-I 800 W/m 20,9 km/h (4 Bft)
16.06.2010 11:10 18,7 C 53 % 1022,1 hPa 0,0 mm 8,0 km/h (2 Bft) O-NO 67 10 min 6 UV-I 817 W/m 20,9 km/h (4 Bft)
16.06.2010 11:20 18,4 C 52 % 1022,0 hPa 0,0 mm 8,0 km/h (2 Bft) NO 45 10 min 6 UV-I 838 W/m 17,7 km/h (3 Bft)
16.06.2010 11:30 19,0 C 52 % 1021,8 hPa 0,0 mm 8,0 km/h (2 Bft) O 90 10 min 6 UV-I 849 W/m 22,5 km/h (4 Bft)
16.06.2010 11:40 19,3 C 51 % 1021,8 hPa 0,0 mm 8,0 km/h (2 Bft) O-NO 67 10 min 7 UV-I 867 W/m 19,3 km/h (3 Bft)
16.06.2010 11:50 19,4 C 51 % 1021,7 hPa 0,0 mm 8,0 km/h (2 Bft) O 90 10 min 7 UV-I 879 W/m 20,9 km/h (4 Bft)
16.06.2010 12:00 19,7 C 50 % 1021,6 hPa 0,0 mm 8,0 km/h (2 Bft) O-NO 67 10 min 7 UV-I 893 W/m 24,1 km/h (4 Bft)
16.06.2010 12:10 19,9 C 49 % 1021,7 hPa 0,0 mm 8,0 km/h (2 Bft) NO 45 10 min 7 UV-I 902 W/m 22,5 km/h (4 Bft)
16.06.2010 12:20 20,3 C 49 % 1021,8 hPa 0,0 mm 9,7 km/h (2 Bft) O 90 10 min 7 UV-I 914 W/m 24,1 km/h (4 Bft)
16.06.2010 12:30 20,5 C 50 % 1021,7 hPa 0,0 mm 8,0 km/h (2 Bft) O 90 10 min 7 UV-I 926 W/m 22,5 km/h (4 Bft)
16.06.2010 12:40 20,5 C 47 % 1021,7 hPa 0,0 mm 9,7 km/h (2 Bft) O-NO 67 10 min 8 UV-I 935 W/m 22,5 km/h (4 Bft)
16.06.2010 12:50 20,3 C 47 % 1021,4 hPa 0,0 mm 8,0 km/h (2 Bft) O-NO 67 10 min 8 UV-I 940 W/m 24,1 km/h (4 Bft)
16.06.2010 13:00 20,9 C 47 % 1021,6 hPa 0,0 mm 8,0 km/h (2 Bft) O-NO 67 10 min 8 UV-I 949 W/m 22,5 km/h (4 Bft)
16.06.2010 13:10 20,9 C 46 % 1021,5 hPa 0,0 mm 9,7 km/h (2 Bft) O-NO 67 10 min 8 UV-I 958 W/m 27,4 km/h (4 Bft)
16.06.2010 13:20 20,9 C 47 % 1021,4 hPa 0,0 mm 9,7 km/h (2 Bft) O-NO 67 10 min 8 UV-I 965 W/m 19,3 km/h (3 Bft)
16.06.2010 13:30 21,1 C 47 % 1021,2 hPa 0,0 mm 9,7 km/h (2 Bft) O-NO 67 10 min 8 UV-I 967 W/m 24,1 km/h (4 Bft)
16.06.2010 13:40 21,4 C 43 % 1021,3 hPa 0,0 mm 9,7 km/h (2 Bft) O-NO 67 10 min 8 UV-I 970 W/m 20,9 km/h (4 Bft)
16.06.2010 13:50 21,6 C 44 % 1021,2 hPa 0,0 mm 8,0 km/h (2 Bft) O 90 10 min 8 UV-I 962 W/m 32,2 km/h (5 Bft)
16.06.2010 14:00 22,3 C 43 % 1021,3 hPa 0,0 mm 6,4 km/h (2 Bft) O 90 10 min 8 UV-I 960 W/m 22,5 km/h (4 Bft)
16.06.2010 14:10 22,4 C 45 % 1021,1 hPa 0,0 mm 8,0 km/h (2 Bft) O-NO 67 10 min 8 UV-I 954 W/m 17,7 km/h (3 Bft)
16.06.2010 14:20 22,7 C 43 % 1021,1 hPa 0,0 mm 8,0 km/h (2 Bft) O 90 10 min 8 UV-I 958 W/m 17,7 km/h (3 Bft)
16.06.2010 14:30 22,7 C 44 % 1021,0 hPa 0,0 mm 9,7 km/h (2 Bft) O-NO 67 10 min 7 UV-I 942 W/m 30,6 km/h (5 Bft)
16.06.2010 14:40 22,5 C 43 % 1021,1 hPa 0,0 mm 9,4 km/h (2 Bft) O 101 10 min 7 UV-I 926 W/m 20,9 km/h (4 Bft)
16.06.2010 14:50 22,8 C 43 % 1021,0 hPa 0,0 mm 8,6 km/h (2 Bft) NO 48 10 min 7 UV-I 922 W/m 22,5 km/h (4 Bft)
16.06.2010 15:00 22,9 C 42 % 1021,0 hPa 0,0 mm 9,8 km/h (2 Bft) O 89 10 min 7 UV-I 916 W/m 24,1 km/h (4 Bft)
16.06.2010 15:10 23,1 C 45 % 1020,8 hPa 0,0 mm 6,5 km/h (2 Bft) NO 42 10 min 7 UV-I 903 W/m 20,9 km/h (4 Bft)
16.06.2010 15:20 23,1 C 43 % 1020,7 hPa 0,0 mm 8,1 km/h (2 Bft) O 98 10 min 6 UV-I 865 W/m 24,1 km/h (4 Bft)
16.06.2010 15:30 23,1 C 42 % 1020,5 hPa 0,0 mm 8,7 km/h (2 Bft) N 11 10 min 6 UV-I 868 W/m 19,3 km/h (3 Bft)
16.06.2010 15:40 22,6 C 44 % 1020,5 hPa 0,0 mm 7,7 km/h (2 Bft) O 95 10 min 6 UV-I 850 W/m 20,9 km/h (4 Bft)
16.06.2010 15:50 23,5 C 42 % 1020,4 hPa 0,0 mm 7,5 km/h (2 Bft) O-SO 108 10 min 6 UV-I 846 W/m 19,3 km/h (3 Bft)
16.06.2010 16:00 23,8 C 41 % 1020,4 hPa 0,0 mm 9,7 km/h (2 Bft) O 95 10 min 5 UV-I 825 W/m 17,7 km/h (3 Bft)
16.06.2010 16:10 23,8 C 39 % 1020,3 hPa 0,0 mm 9,7 km/h (2 Bft) O 90 10 min 5 UV-I 833 W/m 25,7 km/h (4 Bft)
16.06.2010 16:20 24,0 C 38 % 1020,3 hPa 0,0 mm 8,0 km/h (2 Bft) O-SO 112 10 min 5 UV-I 812 W/m 20,9 km/h (4 Bft)
16.06.2010 16:30 23,8 C 40 % 1020,0 hPa 0,0 mm 6,4 km/h (2 Bft) O 90 10 min 5 UV-I 786 W/m 20,9 km/h (4 Bft)
16.06.2010 16:40 23,9 C 41 % 1019,9 hPa 0,0 mm 6,4 km/h (2 Bft) O-NO 67 10 min 4 UV-I 766 W/m 14,5 km/h (3 Bft)
16.06.2010 16:50 23,9 C 40 % 1019,9 hPa 0,0 mm 8,0 km/h (2 Bft) O 90 10 min 4 UV-I 742 W/m 20,9 km/h (4 Bft)
16.06.2010 17:00 23,9 C 38 % 1019,8 hPa 0,0 mm 8,0 km/h (2 Bft) NO 45 10 min 4 UV-I 721 W/m 20,9 km/h (4 Bft)
16.06.2010 17:10 23,8 C 39 % 1019,6 hPa 0,0 mm 8,0 km/h (2 Bft) O 90 10 min 4 UV-I 703 W/m 20,9 km/h (4 Bft)
16.06.2010 17:20 23,6 C 40 % 1019,6 hPa 0,0 mm 6,4 km/h (2 Bft) O-NO 67 10 min 3 UV-I 664 W/m 24,1 km/h (4 Bft)
16.06.2010 17:30 23,7 C 40 % 1019,5 hPa 0,0 mm 6,4 km/h (2 Bft) O-NO 67 10 min 3 UV-I 638 W/m 17,7 km/h (3 Bft)
16.06.2010 17:40 23,8 C 40 % 1019,6 hPa 0,0 mm 8,0 km/h (2 Bft) O 90 10 min 3 UV-I 606 W/m 20,9 km/h (4 Bft)
16.06.2010 17:50 23,7 C 40 % 1019,6 hPa 0,0 mm 6,4 km/h (2 Bft) O-NO 67 10 min 3 UV-I 591 W/m 25,7 km/h (4 Bft)
16.06.2010 18:00 23,7 C 41 % 1019,6 hPa 0,0 mm 4,8 km/h (1 Bft) O 90 10 min 2 UV-I 564 W/m 14,5 km/h (3 Bft)
16.06.2010 18:10 23,5 C 40 % 1019,5 hPa 0,0 mm 8,0 km/h (2 Bft) O 90 10 min 2 UV-I 536 W/m 22,5 km/h (4 Bft)
16.06.2010 18:20 23,1 C 42 % 1019,4 hPa 0,0 mm 8,0 km/h (2 Bft) O-NO 67 10 min 2 UV-I 504 W/m 19,3 km/h (3 Bft)
16.06.2010 18:30 22,9 C 41 % 1019,4 hPa 0,0 mm 9,7 km/h (2 Bft) O-NO 67 10 min 2 UV-I 482 W/m 24,1 km/h (4 Bft)
16.06.2010 18:40 23,0 C 42 % 1019,6 hPa 0,0 mm 6,4 km/h (2 Bft) O-NO 67 10 min 2 UV-I 446 W/m 17,7 km/h (3 Bft)
16.06.2010 18:50 23,0 C 42 % 1019,4 hPa 0,0 mm 6,4 km/h (2 Bft) O 90 10 min 2 UV-I 420 W/m 17,7 km/h (3 Bft)
16.06.2010 19:00 23,0 C 42 % 1019,3 hPa 0,0 mm 6,4 km/h (2 Bft) O-NO 67 10 min 1 UV-I 392 W/m 22,5 km/h (4 Bft)
16.06.2010 19:10 22,9 C 41 % 1019,4 hPa 0,0 mm 8,0 km/h (2 Bft) O 90 10 min 1 UV-I 362 W/m 20,9 km/h (4 Bft)
16.06.2010 19:20 22,4 C 43 % 1019,4 hPa 0,0 mm 8,0 km/h (2 Bft) O 90 10 min 1 UV-I 322 W/m 19,3 km/h (3 Bft)
16.06.2010 19:30 22,4 C 43 % 1019,3 hPa 0,0 mm 6,4 km/h (2 Bft) O 90 10 min 1 UV-I 302 W/m 16,1 km/h (3 Bft)
16.06.2010 19:40 22,3 C 43 % 1019,3 hPa 0,0 mm 4,8 km/h (1 Bft) O-NO 67 10 min 1 UV-I 281 W/m 17,7 km/h (3 Bft)
16.06.2010 19:50 22,2 C 42 % 1019,3 hPa 0,0 mm 8,0 km/h (2 Bft) O-NO 67 10 min 1 UV-I 236 W/m 17,7 km/h (3 Bft)
16.06.2010 20:00 21,8 C 43 % 1019,4 hPa 0,0 mm 7,0 km/h (2 Bft) O-NO 64 10 min 1 UV-I 208 W/m 17,7 km/h (3 Bft)
16.06.2010 20:10 21,1 C 43 % 1019,2 hPa 0,0 mm 7,5 km/h (2 Bft) O-NO 71 10 min 1 UV-I 185 W/m 24,1 km/h (4 Bft)
16.06.2010 20:20 20,5 C 46 % 1019,4 hPa 0,0 mm 6,2 km/h (2 Bft) O-SO 109 10 min 0 UV-I 117 W/m 17,7 km/h (3 Bft)
16.06.2010 20:30 20,2 C 47 % 1019,4 hPa 0,0 mm 4,8 km/h (1 Bft) O-NO 67 0 min 0 UV-I 30 W/m 17,7 km/h (3 Bft)
16.06.2010 20:40 19,8 C 47 % 1019,6 hPa 0,0 mm 6,4 km/h (2 Bft) O-NO 67 0 min 0 UV-I 26 W/m 16,1 km/h (3 Bft)
16.06.2010 20:50 19,4 C 48 % 1019,5 hPa 0,0 mm 3,6 km/h (1 Bft) O 96 0 min 0 UV-I 22 W/m 14,5 km/h (3 Bft)
16.06.2010 21:00 19,1 C 49 % 1019,5 hPa 0,0 mm 3,8 km/h (1 Bft) O 83 0 min 0 UV-I 19 W/m 14,5 km/h (3 Bft)
16.06.2010 21:10 18,8 C 50 % 1019,4 hPa 0,0 mm 2,3 km/h (1 Bft) NO 52 0 min 0 UV-I 17 W/m 11,3 km/h (2 Bft)
16.06.2010 21:20 18,5 C 51 % 1019,5 hPa 0,0 mm 2,5 km/h (1 Bft) O 96 0 min 0 UV-I 13 W/m 8,0 km/h (2 Bft)
16.06.2010 21:30 18,2 C 52 % 1019,6 hPa 0,0 mm 1,4 km/h (1 Bft) NO 47 0 min 0 UV-I 10 W/m 8,0 km/h (2 Bft)
16.06.2010 21:40 17,7 C 54 % 1019,7 hPa 0,0 mm 1,0 km/h (0 Bft) NO 36 0 min 0 UV-I 0 W/m 4,8 km/h (1 Bft)
16.06.2010 21:50 17,2 C 56 % 1019,8 hPa 0,0 mm 0,1 km/h (0 Bft) N-NO 30 0 min 0 UV-I 0 W/m 3,2 km/h (1 Bft)
16.06.2010 22:00 16,8 C 57 % 1019,9 hPa 0,0 mm 0,4 km/h (0 Bft) NO 39 0 min 0 UV-I 0 W/m 4,8 km/h (1 Bft)
16.06.2010 22:10 16,4 C 58 % 1020,1 hPa 0,0 mm 0,3 km/h (0 Bft) NO 39 0 min 0 UV-I 0 W/m 3,2 km/h (1 Bft)
16.06.2010 22:20 16,0 C 60 % 1020,0 hPa 0,0 mm 0,2 km/h (0 Bft) NO 49 0 min 0 UV-I 0 W/m 3,2 km/h (1 Bft)
16.06.2010 22:30 15,6 C 62 % 1020,0 hPa 0,0 mm 0,0 km/h (0 Bft) NO 48 0 min 0 UV-I 0 W/m 1,6 km/h (1 Bft)
16.06.2010 22:40 15,3 C 63 % 1020,0 hPa 0,0 mm 0,2 km/h (0 Bft) NO 49 0 min 0 UV-I 0 W/m 3,2 km/h (1 Bft)
16.06.2010 22:50 15,1 C 64 % 1020,0 hPa 0,0 mm 0,2 km/h (0 Bft) NO 48 0 min 0 UV-I 0 W/m 4,8 km/h (1 Bft)
16.06.2010 23:00 15,0 C 65 % 1020,0 hPa 0,0 mm 0,2 km/h (0 Bft) O-NO 71 0 min 0 UV-I 0 W/m 4,8 km/h (1 Bft)
16.06.2010 23:10 14,6 C 65 % 1020,0 hPa 0,0 mm 0,1 km/h (0 Bft) O-NO 71 0 min 0 UV-I 0 W/m 1,6 km/h (1 Bft)
16.06.2010 23:20 14,3 C 67 % 1020,0 hPa 0,0 mm 0,0 km/h (0 Bft) O-NO 71 0 min 0 UV-I 0 W/m 1,6 km/h (1 Bft)
16.06.2010 23:30 14,0 C 68 % 1020,1 hPa 0,0 mm 0,0 km/h (0 Bft) O-NO 71 0 min 0 UV-I 0 W/m 1,6 km/h (1 Bft)
16.06.2010 23:40 13,8 C 69 % 1020,0 hPa 0,0 mm 0,1 km/h (0 Bft) O-NO 71 0 min 0 UV-I 0 W/m 1,6 km/h (1 Bft)
16.06.2010 23:50 13,6 C 68 % 1020,1 hPa 0,0 mm 0,3 km/h (0 Bft) O-NO 71 0 min 0 UV-I 0 W/m 3,2 km/h (1 Bft)
_ Min-Zeit 05:20 16:20 20:10 - 00:50 - - - - - 04:20
Minimum _ 8,6 C 38 % 1019,2 hPa - 0,0 km/h (0 Bft) - - - - - 0,0 km/h (0 Bft)
_ Max-Zeit 16:20 05:20 01:40 00:00 15:00 - - 06:20 12:40 13:40 13:50
Maximum _ 24,2 C 92 % 1023,7 hPa 0,0 mm 9,8 km/h
O (2 Bft)
- - 10 min 8 UV-I 970 W/m 32,2 km/h
O-NO (5 Bft)
Durchschnitt _ 16,5 C 62 % 1021,5 hPa #0,0 mm 4,3 km/h (1 Bft) O-NO - #14:10 h 4 UV-I 549 W/m 13,2 km/h (3 Bft)